Regional Weather Roundup
Issued by NWS

Home | Current Version | Previous Version | Text Only | Print | Product List | Glossary On
Versions: 1 2 3 4 5 6 7 8 9 10 11 12 13 14 15 16 17 18 19 20 21 22 23 24 25 26 27 28 29 30 31 32 33 34 35 36 37 38 39 40 41 42 43 44 45 46 47 48 49 50
000
ASUS43 KTOP 270208
RWRKS

WEATHER ROUNDUP FOR KANSAS
NATIONAL WEATHER SERVICE GOODLAND KS
800 PM CST WED NOV 26 2014

NOTE:  "FAIR" INDICATES FEW OR NO CLOUDS BELOW 12,000 FEET WITH NO
SIGNIFICANT WEATHER AND/OR OBSTRUCTIONS TO VISIBILITY.

KSZ001>006-013>018-027>032-041>047-270300-
NORTHWEST KANSAS

CITY           SKY/WX    TMP DP  RH WIND       PRES   REMARKS
GOODLAND       PTCLDY    23  20  88 NE7       30.32F
HAYS           CLOUDY    36  16  44 N3        30.39R
HILL CITY      CLOUDY    34  18  52 N6        30.40R
RUSSELL        CLOUDY    33  20  58 N6        30.38R
$$

KSZ061>065-074>080-084>089-270300-
SOUTHWEST KANSAS

CITY           SKY/WX    TMP DP  RH WIND       PRES   REMARKS
DODGE CITY     PTCLDY    27  15  61 N7        30.38R
ELKHART          N/A     30  18  61 E6          N/A
GARDEN CITY    CLEAR     30  17  58 NE10      30.36R WCI  21
GREAT BEND     CLOUDY    36  18  48 N14       30.38F WCI  27
LIBERAL        CLEAR     36  16  44 NE6       30.37S
PRATT          MOCLDY    36  21  55 N9        30.39R
$$

KSZ066>073-081>083-090>101-270300-
SOUTHEAST KANSAS

CITY           SKY/WX    TMP DP  RH WIND       PRES   REMARKS
CHANUTE        CLEAR     32  24  72 NW13      30.33R WCI  22
COFFEYVILLE    CLEAR     36  25  64 NW14      30.33R WCI  27
HUTCHINSON     CLOUDY    36  21  54 N13       30.39R WCI  27
MEDICINE LODGE   N/A     36  21  54 N6        30.39R
NEWTON         CLEAR     30  18  59 N13       30.39R WCI  20
PARSONS        CLEAR     35  25  66 N15       30.34R WCI  25
WICHITA INTL   MOCLDY    37  21  52 N16       30.38R WCI  28
WICHITA JABRA  CLEAR     34  22  61 N12       30.37R WCI  25
WICHITA MCCONL CLEAR     36  21  53 N17       30.38R WCI  26
WINFIELD       PTCLDY    37  24  59 N14       30.37R WCI  28
$$

KSZ007>012-019>026-033>040-048>060-102>105-270300-
NORTHEAST KANSAS

CITY           SKY/WX    TMP DP  RH WIND       PRES   REMARKS
CONCORDIA      MOCLDY    29  19  66 N10       30.40R WCI  20
EMPORIA        CLEAR     30  22  72 NW14      30.35R WCI  19
LAWRENCE       CLOUDY    30  22  72 NW20G30   30.33R WCI  17
MANHATTAN      CLEAR     29  21  72 N7        30.39R
MARYSVILLE     CLOUDY    28  21  74 N20       30.37R WCI  15
OLATHE IND     CLOUDY    30  22  72 NW18      30.30R WCI  18
OLATHE EXE     CLOUDY    31  22  69 N15G28    30.28R WCI  20
SALINA         CLEAR     31  20  63 NW10      30.41R WCI  22
TOPEKA BILLARD CLOUDY    31  21  66 NW17G24   30.36R WCI  19
TOPEKA FORBES  CLOUDY    31  20  63 N18G28    30.34R WCI  19
$$


USA.gov is the U.S. government's official web portal to all federal, state and local government web resources and services.